Year,Month,Day,Hour,Minute,Value (Times are PST for windspeed in km/hr)
2015,08,30,00,00,2.10
2015,08,30,00,01,2.40
2015,08,30,00,02,1.90
2015,08,30,00,03,1.40
2015,08,30,00,04,1.50
2015,08,30,00,05,1.20
2015,08,30,00,06,1.60
2015,08,30,00,07,1.70
2015,08,30,00,08,0.90
2015,08,30,00,09,1.20
2015,08,30,00,10,0.70
2015,08,30,00,11,1.20
2015,08,30,00,12,1.30
2015,08,30,00,13,1.60
2015,08,30,00,14,1.00
2015,08,30,00,15,1.90
2015,08,30,00,16,0.80
2015,08,30,00,17,2.00
2015,08,30,00,18,2.00
2015,08,30,00,19,2.30
2015,08,30,00,20,2.30
2015,08,30,00,21,3.40
2015,08,30,00,22,1.00
2015,08,30,00,23,0.00
2015,08,30,00,24,0.00
2015,08,30,00,25,0.70
2015,08,30,00,26,1.00
2015,08,30,00,27,0.10
2015,08,30,00,28,0.00
2015,08,30,00,29,0.40
2015,08,30,00,30,1.50
2015,08,30,00,31,1.10
2015,08,30,00,32,0.20
2015,08,30,00,33,0.00
2015,08,30,00,34,0.40
2015,08,30,00,35,1.60
2015,08,30,00,36,1.10
2015,08,30,00,37,0.80
2015,08,30,00,38,1.70
2015,08,30,00,39,1.90
2015,08,30,00,40,3.00
2015,08,30,00,41,2.90
2015,08,30,00,42,1.60
2015,08,30,00,43,0.90
2015,08,30,00,44,0.70
2015,08,30,00,45,1.90
2015,08,30,00,46,2.40
2015,08,30,00,47,2.90
2015,08,30,00,48,2.50
2015,08,30,00,49,2.10
2015,08,30,00,50,1.70
2015,08,30,00,51,0.80
2015,08,30,00,52,0.80
2015,08,30,00,53,0.20
2015,08,30,00,54,0.50
2015,08,30,00,55,1.00
2015,08,30,00,56,0.00
2015,08,30,00,57,0.00
2015,08,30,00,58,0.20
2015,08,30,00,59,0.50
2015,08,30,01,00,1.50
2015,08,30,01,01,0.40
2015,08,30,01,02,0.00
2015,08,30,01,03,0.00
2015,08,30,01,04,0.00
2015,08,30,01,05,0.00
2015,08,30,01,06,0.00
2015,08,30,01,07,0.80
2015,08,30,01,08,0.40
2015,08,30,01,09,0.30
2015,08,30,01,10,0.10
2015,08,30,01,11,0.50
2015,08,30,01,12,0.20
2015,08,30,01,13,1.30
2015,08,30,01,14,2.50
2015,08,30,01,15,3.30
2015,08,30,01,16,3.20
2015,08,30,01,17,3.80
2015,08,30,01,18,3.30
2015,08,30,01,19,3.10
2015,08,30,01,20,2.60
2015,08,30,01,21,3.60
2015,08,30,01,22,3.30
2015,08,30,01,23,1.90
2015,08,30,01,24,1.60
2015,08,30,01,25,0.70
2015,08,30,01,26,1.70
2015,08,30,01,27,2.10
2015,08,30,01,28,2.10
2015,08,30,01,29,2.20
2015,08,30,01,30,2.80
2015,08,30,01,31,2.60
2015,08,30,01,32,1.00
2015,08,30,01,33,2.50
2015,08,30,01,34,2.30
2015,08,30,01,35,2.10
2015,08,30,01,36,2.10
2015,08,30,01,37,2.30
2015,08,30,01,38,2.10
2015,08,30,01,39,1.60
2015,08,30,01,40,1.60
2015,08,30,01,41,0.70
2015,08,30,01,42,1.60
2015,08,30,01,43,1.90
2015,08,30,01,44,2.30
2015,08,30,01,45,2.80
2015,08,30,01,46,3.00
2015,08,30,01,47,3.30
2015,08,30,01,48,2.10
2015,08,30,01,49,0.40
2015,08,30,01,50,0.20
2015,08,30,01,51,1.60
2015,08,30,01,52,0.70
2015,08,30,01,53,0.20
2015,08,30,01,54,0.10
2015,08,30,01,55,1.40
2015,08,30,01,56,0.10
2015,08,30,01,57,1.40
2015,08,30,01,58,3.00
2015,08,30,01,59,3.30
2015,08,30,02,00,2.40
2015,08,30,02,01,1.20
2015,08,30,02,02,1.90
2015,08,30,02,03,1.70
2015,08,30,02,04,0.50
2015,08,30,02,05,1.30
2015,08,30,02,06,2.70
2015,08,30,02,07,3.20
2015,08,30,02,08,2.60
2015,08,30,02,09,3.00
2015,08,30,02,10,2.60
2015,08,30,02,11,2.00
2015,08,30,02,12,1.60
2015,08,30,02,13,0.70
2015,08,30,02,14,0.80
2015,08,30,02,15,2.60
2015,08,30,02,16,1.80
2015,08,30,02,17,2.10
2015,08,30,02,18,0.00
2015,08,30,02,19,0.00
2015,08,30,02,20,1.00
2015,08,30,02,21,2.20
2015,08,30,02,22,1.90
2015,08,30,02,23,0.80
2015,08,30,02,24,1.70
2015,08,30,02,25,2.40
2015,08,30,02,26,2.30
2015,08,30,02,27,2.40
2015,08,30,02,28,3.00
2015,08,30,02,29,3.50
2015,08,30,02,30,4.30
2015,08,30,02,31,3.40
2015,08,30,02,32,3.70
2015,08,30,02,33,3.30
2015,08,30,02,34,4.30
2015,08,30,02,35,3.70
2015,08,30,02,36,2.60
2015,08,30,02,37,2.10
2015,08,30,02,38,2.40
2015,08,30,02,39,2.20
2015,08,30,02,40,2.40
2015,08,30,02,41,2.00
2015,08,30,02,42,1.60
2015,08,30,02,43,0.60
2015,08,30,02,44,0.20
2015,08,30,02,45,0.50
2015,08,30,02,46,1.20
2015,08,30,02,47,1.50
2015,08,30,02,48,1.40
2015,08,30,02,49,0.70
2015,08,30,02,50,0.00
2015,08,30,02,51,0.10
2015,08,30,02,52,1.00
2015,08,30,02,53,0.20
2015,08,30,02,54,0.00
2015,08,30,02,55,0.00
2015,08,30,02,56,0.40
2015,08,30,02,57,0.10
2015,08,30,02,58,0.70
2015,08,30,02,59,0.40
2015,08,30,03,00,1.00
2015,08,30,03,01,1.70
2015,08,30,03,02,2.60
2015,08,30,03,03,2.40
2015,08,30,03,04,1.40
2015,08,30,03,05,0.20
2015,08,30,03,06,1.10
2015,08,30,03,07,2.60
2015,08,30,03,08,2.70
2015,08,30,03,09,3.70
2015,08,30,03,10,4.70
2015,08,30,03,11,3.60
2015,08,30,03,12,1.30
2015,08,30,03,13,0.40
2015,08,30,03,14,1.20
2015,08,30,03,15,0.20
2015,08,30,03,16,0.30
2015,08,30,03,17,1.50
2015,08,30,03,18,3.10
2015,08,30,03,19,2.30
2015,08,30,03,20,3.70
2015,08,30,03,21,3.00
2015,08,30,03,22,2.80
2015,08,30,03,23,2.90
2015,08,30,03,24,0.60
2015,08,30,03,25,0.00
2015,08,30,03,26,0.00
2015,08,30,03,27,0.20
2015,08,30,03,28,0.00
2015,08,30,03,29,0.00
2015,08,30,03,30,0.00
2015,08,30,03,31,0.00
2015,08,30,03,32,0.00
2015,08,30,03,33,0.00
2015,08,30,03,34,0.10
2015,08,30,03,35,0.60
2015,08,30,03,36,1.60
2015,08,30,03,37,0.80
2015,08,30,03,38,0.70
2015,08,30,03,39,1.00
2015,08,30,03,40,1.60
2015,08,30,03,41,2.00
2015,08,30,03,42,2.40
2015,08,30,03,43,3.60
2015,08,30,03,44,3.20
2015,08,30,03,45,2.40
2015,08,30,03,46,2.00
2015,08,30,03,47,1.80
2015,08,30,03,48,2.20
2015,08,30,03,49,3.00
2015,08,30,03,50,2.70
2015,08,30,03,51,1.90
2015,08,30,03,52,0.50
2015,08,30,03,53,0.00
2015,08,30,03,54,0.10
2015,08,30,03,55,0.90
2015,08,30,03,56,1.30
2015,08,30,03,57,2.30
2015,08,30,03,58,2.10
2015,08,30,03,59,2.20
2015,08,30,04,00,1.40
2015,08,30,04,01,1.70
2015,08,30,04,02,1.80
2015,08,30,04,03,1.70
2015,08,30,04,04,0.60
2015,08,30,04,05,1.00
2015,08,30,04,06,1.10
2015,08,30,04,07,0.60
2015,08,30,04,08,0.00
2015,08,30,04,09,0.00
2015,08,30,04,10,0.00
2015,08,30,04,11,0.00
2015,08,30,04,12,0.00
2015,08,30,04,13,0.10
2015,08,30,04,14,1.10
2015,08,30,04,15,1.60
2015,08,30,04,16,2.00
2015,08,30,04,17,1.60
2015,08,30,04,18,1.60
2015,08,30,04,19,1.80
2015,08,30,04,20,1.40
2015,08,30,04,21,1.40
2015,08,30,04,22,0.90
2015,08,30,04,23,0.70
2015,08,30,04,24,0.20
2015,08,30,04,25,0.00
2015,08,30,04,26,0.00
2015,08,30,04,27,0.20
2015,08,30,04,28,1.60
2015,08,30,04,29,1.50
2015,08,30,04,30,0.70
2015,08,30,04,31,1.70
2015,08,30,04,32,1.80
2015,08,30,04,33,1.70
2015,08,30,04,34,1.70
2015,08,30,04,35,0.40
2015,08,30,04,36,0.20
2015,08,30,04,37,0.20
2015,08,30,04,38,2.80
2015,08,30,04,39,2.20
2015,08,30,04,40,0.10
2015,08,30,04,41,0.80
2015,08,30,04,42,1.00
2015,08,30,04,43,1.20
2015,08,30,04,44,3.70
2015,08,30,04,45,4.20
2015,08,30,04,46,3.40
2015,08,30,04,47,3.70
2015,08,30,04,48,3.40
2015,08,30,04,49,2.70
2015,08,30,04,50,1.00
2015,08,30,04,51,0.20
2015,08,30,04,52,2.20
2015,08,30,04,53,3.00
2015,08,30,04,54,4.30
2015,08,30,04,55,4.70
2015,08,30,04,56,3.80
2015,08,30,04,57,3.00
2015,08,30,04,58,3.00
2015,08,30,04,59,2.80
2015,08,30,05,00,2.10
2015,08,30,05,01,1.90
2015,08,30,05,02,1.10
2015,08,30,05,03,0.90
2015,08,30,05,04,0.00
2015,08,30,05,05,1.60
2015,08,30,05,06,1.70
2015,08,30,05,07,0.80
2015,08,30,05,08,0.40
2015,08,30,05,09,1.80
2015,08,30,05,10,2.00
2015,08,30,05,11,2.10
2015,08,30,05,12,2.10
2015,08,30,05,13,2.40
2015,08,30,05,14,3.10
2015,08,30,05,15,3.00
2015,08,30,05,16,3.50
2015,08,30,05,17,2.90
2015,08,30,05,18,3.30
2015,08,30,05,19,2.10
2015,08,30,05,20,1.30
2015,08,30,05,21,1.40
2015,08,30,05,22,1.10
2015,08,30,05,23,1.00
2015,08,30,05,24,1.70
2015,08,30,05,25,1.70
2015,08,30,05,26,1.20
2015,08,30,05,27,1.00
2015,08,30,05,28,0.70
2015,08,30,05,29,0.70
2015,08,30,05,30,0.00
2015,08,30,05,31,0.00
2015,08,30,05,32,0.20
2015,08,30,05,33,0.70
2015,08,30,05,34,1.10
2015,08,30,05,35,2.00
2015,08,30,05,36,1.70
2015,08,30,05,37,0.50
2015,08,30,05,38,0.10
2015,08,30,05,39,0.10
2015,08,30,05,40,0.60
2015,08,30,05,41,2.80
2015,08,30,05,42,4.60
2015,08,30,05,43,3.20
2015,08,30,05,44,0.30
2015,08,30,05,45,0.70
2015,08,30,05,46,1.40
2015,08,30,05,47,1.10
2015,08,30,05,48,1.30
2015,08,30,05,49,3.00
2015,08,30,05,50,3.40
2015,08,30,05,51,3.40
2015,08,30,05,52,4.30
2015,08,30,05,53,4.20
2015,08,30,05,54,4.50
2015,08,30,05,55,3.70
2015,08,30,05,56,2.90
2015,08,30,05,57,3.40
2015,08,30,05,58,1.90
2015,08,30,05,59,1.90
2015,08,30,06,00,2.50
2015,08,30,06,01,1.90
2015,08,30,06,02,2.60
2015,08,30,06,03,3.20
2015,08,30,06,04,3.90
2015,08,30,06,05,4.00
2015,08,30,06,06,3.30
2015,08,30,06,07,1.90
2015,08,30,06,08,1.40
2015,08,30,06,09,1.10
2015,08,30,06,10,2.30
2015,08,30,06,11,2.80
2015,08,30,06,12,3.60
2015,08,30,06,13,3.30
2015,08,30,06,14,2.20
2015,08,30,06,15,2.60
2015,08,30,06,16,2.10
2015,08,30,06,17,1.80
2015,08,30,06,18,1.80
2015,08,30,06,19,1.10
2015,08,30,06,20,0.40
2015,08,30,06,21,0.00
2015,08,30,06,22,0.00
2015,08,30,06,23,0.00
2015,08,30,06,24,0.90
2015,08,30,06,25,1.50
2015,08,30,06,26,0.80
2015,08,30,06,27,1.20
2015,08,30,06,28,1.30
2015,08,30,06,29,0.20
2015,08,30,06,30,0.00
2015,08,30,06,31,1.60
2015,08,30,06,32,1.70
2015,08,30,06,33,3.60
2015,08,30,06,34,3.60
2015,08,30,06,35,3.90
2015,08,30,06,36,4.00
2015,08,30,06,37,6.30
2015,08,30,06,38,4.90
2015,08,30,06,39,3.30
2015,08,30,06,40,2.30
2015,08,30,06,41,2.30
2015,08,30,06,42,1.50
2015,08,30,06,43,0.50
2015,08,30,06,44,0.50
2015,08,30,06,45,0.70
2015,08,30,06,46,0.00
2015,08,30,06,47,0.00
2015,08,30,06,48,0.00
2015,08,30,06,49,0.00
2015,08,30,06,50,0.10
2015,08,30,06,51,0.20
2015,08,30,06,52,0.70
2015,08,30,06,53,0.00
2015,08,30,06,54,0.10
2015,08,30,06,55,0.20
2015,08,30,06,56,0.80
2015,08,30,06,57,1.00
2015,08,30,06,58,0.10
2015,08,30,06,59,0.00
2015,08,30,07,00,0.00
2015,08,30,07,01,0.00
2015,08,30,07,02,0.10
2015,08,30,07,03,0.10
2015,08,30,07,04,0.00
2015,08,30,07,05,0.00
2015,08,30,07,06,0.00
2015,08,30,07,07,0.20
2015,08,30,07,08,0.40
2015,08,30,07,09,0.80
2015,08,30,07,10,0.00
2015,08,30,07,11,0.40
2015,08,30,07,12,0.50
2015,08,30,07,13,0.20
2015,08,30,07,14,0.40
2015,08,30,07,15,0.70
2015,08,30,07,16,0.10
2015,08,30,07,17,0.00
2015,08,30,07,18,0.00
2015,08,30,07,19,0.10
2015,08,30,07,20,1.40
2015,08,30,07,21,1.60
2015,08,30,07,22,1.00
2015,08,30,07,23,0.10
2015,08,30,07,24,0.00
2015,08,30,07,25,0.10
2015,08,30,07,26,0.10
2015,08,30,07,27,0.80
2015,08,30,07,28,1.70
2015,08,30,07,29,1.70
2015,08,30,07,30,1.40
2015,08,30,07,31,1.60
2015,08,30,07,32,1.70
2015,08,30,07,33,2.00
2015,08,30,07,34,2.40
2015,08,30,07,35,1.40
2015,08,30,07,36,1.20
2015,08,30,07,37,1.00
2015,08,30,07,38,1.10
2015,08,30,07,39,0.60
2015,08,30,07,40,0.60
2015,08,30,07,41,0.60
2015,08,30,07,42,0.30
2015,08,30,07,43,0.00
2015,08,30,07,44,0.00
2015,08,30,07,45,0.00
2015,08,30,07,46,0.00
2015,08,30,07,47,0.50
2015,08,30,07,48,1.20
2015,08,30,07,49,0.20
2015,08,30,07,50,0.50
2015,08,30,07,51,1.20
2015,08,30,07,52,0.70
2015,08,30,07,53,0.50
2015,08,30,07,54,0.30
2015,08,30,07,55,0.00
2015,08,30,07,56,0.00
2015,08,30,07,57,0.00
2015,08,30,07,58,0.00
2015,08,30,07,59,0.00
2015,08,30,08,00,0.00
2015,08,30,08,01,0.70
2015,08,30,08,02,1.30
2015,08,30,08,03,0.40
2015,08,30,08,04,0.20
2015,08,30,08,05,1.20
2015,08,30,08,06,0.50
2015,08,30,08,07,0.20
2015,08,30,08,08,0.20
2015,08,30,08,09,0.20
2015,08,30,08,10,0.10
2015,08,30,08,11,0.10
2015,08,30,08,12,1.00
2015,08,30,08,13,0.60
2015,08,30,08,14,0.40
2015,08,30,08,15,2.00
2015,08,30,08,16,1.00
2015,08,30,08,17,1.40
2015,08,30,08,18,1.00
2015,08,30,08,19,0.70
2015,08,30,08,20,0.00
2015,08,30,08,21,0.50
2015,08,30,08,22,2.00
2015,08,30,08,23,1.60
2015,08,30,08,24,1.90
2015,08,30,08,25,2.10
2015,08,30,08,26,2.40
2015,08,30,08,27,1.60
2015,08,30,08,28,0.30
2015,08,30,08,29,1.20
2015,08,30,08,30,2.30
2015,08,30,08,31,2.90
2015,08,30,08,32,4.40
2015,08,30,08,33,3.80
2015,08,30,08,34,3.40
2015,08,30,08,35,1.90
2015,08,30,08,36,2.80
2015,08,30,08,37,2.60
2015,08,30,08,38,1.70
2015,08,30,08,39,1.30
2015,08,30,08,40,2.10
2015,08,30,08,41,1.30
2015,08,30,08,42,0.00
2015,08,30,08,43,0.40
2015,08,30,08,44,0.00
2015,08,30,08,45,0.80
2015,08,30,08,46,2.40
2015,08,30,08,47,1.80
2015,08,30,08,48,1.30
2015,08,30,08,49,1.00
2015,08,30,08,50,0.00
2015,08,30,08,51,0.50
2015,08,30,08,52,1.40
2015,08,30,08,53,1.30
2015,08,30,08,54,1.90
2015,08,30,08,55,2.10
2015,08,30,08,56,2.20
2015,08,30,08,57,3.60
2015,08,30,08,58,1.70
2015,08,30,08,59,2.80
2015,08,30,09,00,2.30
2015,08,30,09,01,2.90
2015,08,30,09,02,2.70
2015,08,30,09,03,2.40
2015,08,30,09,04,3.20
2015,08,30,09,05,4.90
2015,08,30,09,06,3.50
2015,08,30,09,07,4.30
2015,08,30,09,08,2.90
2015,08,30,09,09,2.60
2015,08,30,09,10,2.80
2015,08,30,09,11,3.70
2015,08,30,09,12,3.60
2015,08,30,09,13,5.80
2015,08,30,09,14,5.30
2015,08,30,09,15,4.80
2015,08,30,09,16,3.50
2015,08,30,09,17,3.60
2015,08,30,09,18,4.30
2015,08,30,09,19,5.50
2015,08,30,09,20,4.80
2015,08,30,09,21,3.30
2015,08,30,09,22,3.20
2015,08,30,09,23,3.90
2015,08,30,09,24,4.70
2015,08,30,09,25,3.30
2015,08,30,09,26,4.90
2015,08,30,09,27,3.30
2015,08,30,09,28,3.70
2015,08,30,09,29,4.00
2015,08,30,09,30,5.80
2015,08,30,09,31,3.60
2015,08,30,09,32,3.90
2015,08,30,09,33,6.10
2015,08,30,09,34,5.90
2015,08,30,09,35,5.80
2015,08,30,09,36,2.00
2015,08,30,09,37,3.30
2015,08,30,09,38,4.90
2015,08,30,09,39,4.00
2015,08,30,09,40,3.30
2015,08,30,09,41,2.90
2015,08,30,09,42,2.50
2015,08,30,09,43,2.00
2015,08,30,09,44,1.70
2015,08,30,09,45,1.40
2015,08,30,09,46,5.30
2015,08,30,09,47,6.60
2015,08,30,09,48,4.20
2015,08,30,09,49,4.40
2015,08,30,09,50,2.30
2015,08,30,09,51,4.20
2015,08,30,09,52,2.30
2015,08,30,09,53,5.20
2015,08,30,09,54,4.00
2015,08,30,09,55,4.30
2015,08,30,09,56,5.20
2015,08,30,09,57,5.90
2015,08,30,09,58,5.10
2015,08,30,09,59,4.00
2015,08,30,10,00,1.70
2015,08,30,10,01,4.40
2015,08,30,10,02,4.00
2015,08,30,10,03,3.30
2015,08,30,10,04,2.20
2015,08,30,10,05,3.30
2015,08,30,10,06,1.70
2015,08,30,10,07,4.10
2015,08,30,10,08,5.80
2015,08,30,10,09,6.40
2015,08,30,10,10,3.60
2015,08,30,10,11,2.20
2015,08,30,10,12,2.80
2015,08,30,10,13,3.90
2015,08,30,10,14,5.20
2015,08,30,10,15,6.70
2015,08,30,10,16,8.20
2015,08,30,10,17,6.30
2015,08,30,10,18,5.50
2015,08,30,10,19,4.30
2015,08,30,10,20,5.90
2015,08,30,10,21,8.10
2015,08,30,10,22,6.10
2015,08,30,10,23,7.00
2015,08,30,10,24,7.30
2015,08,30,10,25,6.30
2015,08,30,10,26,5.20
2015,08,30,10,27,6.30
2015,08,30,10,28,5.80
2015,08,30,10,29,5.50
2015,08,30,10,30,6.10
2015,08,30,10,31,6.70
2015,08,30,10,32,7.70
2015,08,30,10,33,8.30
2015,08,30,10,34,7.20
2015,08,30,10,35,8.60
2015,08,30,10,36,5.10
2015,08,30,10,37,5.40
2015,08,30,10,38,4.80
2015,08,30,10,39,5.10
2015,08,30,10,40,6.60
2015,08,30,10,41,6.70
2015,08,30,10,42,6.70
2015,08,30,10,43,7.80
2015,08,30,10,44,7.60
2015,08,30,10,45,12.90
2015,08,30,10,46,10.70
2015,08,30,10,47,6.80
2015,08,30,10,48,12.50
2015,08,30,10,49,6.30
2015,08,30,10,50,7.70
2015,08,30,10,51,13.50
2015,08,30,10,52,10.40
2015,08,30,10,53,8.80
2015,08,30,10,54,7.20
2015,08,30,10,55,6.20
2015,08,30,10,56,6.20
2015,08,30,10,57,7.90
2015,08,30,10,58,10.20
2015,08,30,10,59,14.10
2015,08,30,11,00,10.20
2015,08,30,11,01,8.50
2015,08,30,11,02,11.10
2015,08,30,11,03,8.10
2015,08,30,11,04,10.70
2015,08,30,11,05,8.00
2015,08,30,11,06,8.10
2015,08,30,11,07,6.80
2015,08,30,11,08,10.70
2015,08,30,11,09,11.10
2015,08,30,11,10,9.40
2015,08,30,11,11,4.70
2015,08,30,11,12,5.10
2015,08,30,11,13,5.50
2015,08,30,11,14,8.20
2015,08,30,11,15,11.30
2015,08,30,11,16,6.70
2015,08,30,11,17,7.70
2015,08,30,11,18,11.30
2015,08,30,11,19,10.10
2015,08,30,11,20,5.50
2015,08,30,11,21,4.20
2015,08,30,11,22,6.40
2015,08,30,11,23,8.30
2015,08,30,11,24,7.30
2015,08,30,11,25,9.10
2015,08,30,11,26,11.50
2015,08,30,11,27,8.70
2015,08,30,11,28,10.30
2015,08,30,11,29,12.30
2015,08,30,11,30,9.60
2015,08,30,11,31,6.10
2015,08,30,11,32,5.10
2015,08,30,11,33,9.90
2015,08,30,11,34,10.40
2015,08,30,11,35,13.90
2015,08,30,11,36,13.20
2015,08,30,11,37,9.90
2015,08,30,11,38,5.40
2015,08,30,11,39,2.00
2015,08,30,11,40,1.40
2015,08,30,11,41,5.20
2015,08,30,11,42,6.10
2015,08,30,11,43,7.00
2015,08,30,11,44,8.90
2015,08,30,11,45,7.60
2015,08,30,11,46,8.40
2015,08,30,11,47,14.60
2015,08,30,11,48,13.30
2015,08,30,11,49,12.60
2015,08,30,11,50,5.40
2015,08,30,11,51,11.10
2015,08,30,11,52,14.50
2015,08,30,11,53,14.20
2015,08,30,11,54,15.90
2015,08,30,11,55,13.90
2015,08,30,11,56,15.80
2015,08,30,11,57,16.90
2015,08,30,11,58,16.50
2015,08,30,11,59,16.50
2015,08,30,12,00,14.40
2015,08,30,12,01,17.40
2015,08,30,12,02,14.50
2015,08,30,12,03,16.30
2015,08,30,12,04,12.80
2015,08,30,12,05,15.30
2015,08,30,12,06,18.50
2015,08,30,12,07,17.80
2015,08,30,12,08,13.20
2015,08,30,12,09,11.10
2015,08,30,12,10,12.90
2015,08,30,12,11,15.30
2015,08,30,12,12,10.90
2015,08,30,12,13,23.10
2015,08,30,12,14,19.20
2015,08,30,12,15,17.20
2015,08,30,12,16,13.20
2015,08,30,12,17,14.10
2015,08,30,12,18,17.20
2015,08,30,12,19,20.20
2015,08,30,12,20,14.20
2015,08,30,12,21,16.00
2015,08,30,12,22,17.50
2015,08,30,12,23,21.40
2015,08,30,12,24,20.50
2015,08,30,12,25,18.30
2015,08,30,12,26,20.60
2015,08,30,12,27,22.10
2015,08,30,12,28,12.50
2015,08,30,12,29,12.10
2015,08,30,12,30,5.70
2015,08,30,12,31,13.80
2015,08,30,12,32,7.00
2015,08,30,12,33,11.10
2015,08,30,12,34,17.80
2015,08,30,12,35,16.80
2015,08,30,12,36,12.80
2015,08,30,12,37,10.70
2015,08,30,12,38,14.20
2015,08,30,12,39,12.50
2015,08,30,12,40,13.40
2015,08,30,12,41,15.00
2015,08,30,12,42,9.70
2015,08,30,12,43,13.50
2015,08,30,12,44,17.80
2015,08,30,12,45,17.90
2015,08,30,12,46,15.60
2015,08,30,12,47,11.30
2015,08,30,12,48,11.00
2015,08,30,12,49,10.00
2015,08,30,12,50,17.90
2015,08,30,12,51,17.80
2015,08,30,12,52,15.60
2015,08,30,12,53,12.40
2015,08,30,12,54,19.50
2015,08,30,12,55,16.00
2015,08,30,12,56,19.80
2015,08,30,12,57,14.20
2015,08,30,12,58,19.90
2015,08,30,12,59,20.00
2015,08,30,13,00,20.60
2015,08,30,13,01,16.50
2015,08,30,13,02,12.30
2015,08,30,13,03,17.20
2015,08,30,13,04,16.30
2015,08,30,13,05,16.30
2015,08,30,13,06,18.40
2015,08,30,13,07,19.60
2015,08,30,13,08,17.10
2015,08,30,13,09,17.00
2015,08,30,13,10,13.80
2015,08,30,13,11,20.80
2015,08,30,13,12,17.60
2015,08,30,13,13,18.10
2015,08,30,13,14,15.10
2015,08,30,13,15,12.50
2015,08,30,13,16,11.60
2015,08,30,13,17,15.30
2015,08,30,13,18,14.90
2015,08,30,13,19,16.80
2015,08,30,13,20,17.60
2015,08,30,13,21,15.30
2015,08,30,13,22,19.50
2015,08,30,13,23,15.40
2015,08,30,13,24,17.00
2015,08,30,13,25,17.40
2015,08,30,13,26,18.70
2015,08,30,13,27,25.60
2015,08,30,13,28,23.70
2015,08,30,13,29,17.00
2015,08,30,13,30,19.80
2015,08,30,13,31,19.70
2015,08,30,13,32,22.60
2015,08,30,13,33,21.30
2015,08,30,13,34,18.80
2015,08,30,13,35,24.40
2015,08,30,13,36,23.80
2015,08,30,13,37,26.30
2015,08,30,13,38,18.20
2015,08,30,13,39,20.70
2015,08,30,13,40,25.30
2015,08,30,13,41,21.20
2015,08,30,13,42,22.50
2015,08,30,13,43,19.80
2015,08,30,13,44,20.40
2015,08,30,13,45,21.90
2015,08,30,13,46,21.80
2015,08,30,13,47,19.10
2015,08,30,13,48,19.40
2015,08,30,13,49,17.10
2015,08,30,13,50,15.90
2015,08,30,13,51,20.10
2015,08,30,13,52,16.00
2015,08,30,13,53,18.20
2015,08,30,13,54,20.10
2015,08,30,13,55,15.90
2015,08,30,13,56,16.10
2015,08,30,13,57,13.50
2015,08,30,13,58,13.90
2015,08,30,13,59,16.60
2015,08,30,14,00,14.20
2015,08,30,14,01,14.40
2015,08,30,14,02,13.60
2015,08,30,14,03,14.90
2015,08,30,14,04,16.20
2015,08,30,14,05,17.10
2015,08,30,14,06,15.40
2015,08,30,14,07,18.10
2015,08,30,14,08,18.90
2015,08,30,14,09,19.10
2015,08,30,14,10,16.30
2015,08,30,14,11,18.40
2015,08,30,14,12,19.10
2015,08,30,14,13,17.00
2015,08,30,14,14,16.60
2015,08,30,14,15,21.40
2015,08,30,14,16,17.80
2015,08,30,14,17,19.10
2015,08,30,14,18,17.90
2015,08,30,14,19,18.40
2015,08,30,14,20,20.50
2015,08,30,14,21,19.90
2015,08,30,14,22,19.70
2015,08,30,14,23,21.40
2015,08,30,14,24,19.90
2015,08,30,14,25,19.20
2015,08,30,14,26,18.70
2015,08,30,14,27,16.10
2015,08,30,14,28,18.40
2015,08,30,14,29,17.20
2015,08,30,14,30,18.70
2015,08,30,14,31,21.20
2015,08,30,14,32,18.30
2015,08,30,14,33,19.80
2015,08,30,14,34,18.00
2015,08,30,14,35,18.60
2015,08,30,14,36,20.70
2015,08,30,14,37,18.30
2015,08,30,14,38,18.10
2015,08,30,14,39,19.50
2015,08,30,14,40,16.20
2015,08,30,14,41,18.00
2015,08,30,14,42,19.10
2015,08,30,14,43,19.20
2015,08,30,14,44,24.60
2015,08,30,14,45,29.60
2015,08,30,14,46,23.00
2015,08,30,14,47,18.90
2015,08,30,14,48,24.10
2015,08,30,14,49,22.00
2015,08,30,14,50,18.50
2015,08,30,14,51,19.60
2015,08,30,14,52,20.80
2015,08,30,14,53,23.00
2015,08,30,14,54,20.00
2015,08,30,14,55,24.40
2015,08,30,14,56,18.60
2015,08,30,14,57,22.60
2015,08,30,14,58,20.00
2015,08,30,14,59,20.50
2015,08,30,15,00,20.90
2015,08,30,15,01,24.00
2015,08,30,15,02,21.20
2015,08,30,15,03,18.70
2015,08,30,15,04,21.50
2015,08,30,15,05,20.30
2015,08,30,15,06,20.10
2015,08,30,15,07,15.60
2015,08,30,15,08,15.00
2015,08,30,15,09,18.70
2015,08,30,15,10,18.00
2015,08,30,15,11,14.20
2015,08,30,15,12,15.70
2015,08,30,15,13,19.90
2015,08,30,15,14,19.00
2015,08,30,15,15,17.00
2015,08,30,15,16,21.20
2015,08,30,15,17,22.60
2015,08,30,15,18,24.80
2015,08,30,15,19,24.90
2015,08,30,15,20,23.00
2015,08,30,15,21,21.50
2015,08,30,15,22,20.40
2015,08,30,15,23,23.70
2015,08,30,15,24,23.10
2015,08,30,15,25,24.00
2015,08,30,15,26,24.00
2015,08,30,15,27,23.40
2015,08,30,15,28,18.40
2015,08,30,15,29,19.80
2015,08,30,15,30,22.80
2015,08,30,15,31,25.30
2015,08,30,15,32,25.90
2015,08,30,15,33,24.90
2015,08,30,15,34,22.60
2015,08,30,15,35,26.80
2015,08,30,15,36,26.00
2015,08,30,15,37,22.50
2015,08,30,15,38,18.90
2015,08,30,15,39,24.40
2015,08,30,15,40,26.60
2015,08,30,15,41,25.00
2015,08,30,15,42,25.70
2015,08,30,15,43,23.10
2015,08,30,15,44,24.10
2015,08,30,15,45,22.10
2015,08,30,15,46,23.40
2015,08,30,15,47,21.80
2015,08,30,15,48,22.50
2015,08,30,15,49,20.60
2015,08,30,15,50,22.80
2015,08,30,15,51,19.80
2015,08,30,15,52,17.30
2015,08,30,15,53,16.60
2015,08,30,15,54,17.90
2015,08,30,15,55,18.20
2015,08,30,15,56,18.60
2015,08,30,15,57,15.60
2015,08,30,15,58,18.10
2015,08,30,15,59,17.20
2015,08,30,16,00,19.80
2015,08,30,16,01,21.90
2015,08,30,16,02,16.00
2015,08,30,16,03,19.50
2015,08,30,16,04,23.50
2015,08,30,16,05,17.80
2015,08,30,16,06,25.30
2015,08,30,16,07,16.10
2015,08,30,16,08,23.20
2015,08,30,16,09,16.20
2015,08,30,16,10,24.40
2015,08,30,16,11,22.70
2015,08,30,16,12,23.50
2015,08,30,16,13,20.00
2015,08,30,16,14,22.50
2015,08,30,16,15,18.70
2015,08,30,16,16,17.30
2015,08,30,16,17,20.00
2015,08,30,16,18,18.80
2015,08,30,16,19,15.70
2015,08,30,16,20,20.70
2015,08,30,16,21,21.30
2015,08,30,16,22,20.70
2015,08,30,16,23,18.50
2015,08,30,16,24,16.20
2015,08,30,16,25,15.80
2015,08,30,16,26,19.60
2015,08,30,16,27,19.00
2015,08,30,16,28,23.00
2015,08,30,16,29,20.60
2015,08,30,16,30,19.30
2015,08,30,16,31,22.60
2015,08,30,16,32,19.90
2015,08,30,16,33,20.50
2015,08,30,16,34,15.30
2015,08,30,16,35,24.00
2015,08,30,16,36,18.40
2015,08,30,16,37,16.90
2015,08,30,16,38,16.70
2015,08,30,16,39,14.80
2015,08,30,16,40,20.20
2015,08,30,16,41,21.60
2015,08,30,16,42,20.80
2015,08,30,16,43,23.50
2015,08,30,16,44,19.70
2015,08,30,16,45,20.90
2015,08,30,16,46,20.10
2015,08,30,16,47,19.80
2015,08,30,16,48,16.30
2015,08,30,16,49,17.20
2015,08,30,16,50,14.80
2015,08,30,16,51,20.50
2015,08,30,16,52,17.60
2015,08,30,16,53,19.30
2015,08,30,16,54,20.80
2015,08,30,16,55,22.10
2015,08,30,16,56,24.60
2015,08,30,16,57,22.10
2015,08,30,16,58,20.70
2015,08,30,16,59,13.70
2015,08,30,17,00,15.00
2015,08,30,17,01,18.10
2015,08,30,17,02,22.70
2015,08,30,17,03,19.60
2015,08,30,17,04,19.40
2015,08,30,17,05,20.60
2015,08,30,17,06,21.70
2015,08,30,17,07,22.10
2015,08,30,17,08,17.80
2015,08,30,17,09,21.80
2015,08,30,17,10,17.30
2015,08,30,17,11,14.70
2015,08,30,17,12,16.00
2015,08,30,17,13,18.30
2015,08,30,17,14,19.70
2015,08,30,17,15,18.80
2015,08,30,17,16,17.20
2015,08,30,17,17,15.20
2015,08,30,17,18,11.80
2015,08,30,17,19,16.40
2015,08,30,17,20,17.00
2015,08,30,17,21,20.30
2015,08,30,17,22,16.80
2015,08,30,17,23,20.90
2015,08,30,17,24,18.90
2015,08,30,17,25,20.00
2015,08,30,17,26,17.70
2015,08,30,17,27,17.30
2015,08,30,17,28,15.70
2015,08,30,17,29,19.40
2015,08,30,17,30,17.10
2015,08,30,17,31,15.90
2015,08,30,17,32,17.20
2015,08,30,17,33,18.00
2015,08,30,17,34,19.70
2015,08,30,17,35,18.80
2015,08,30,17,36,16.70
2015,08,30,17,37,18.20
2015,08,30,17,38,18.40
2015,08,30,17,39,18.80
2015,08,30,17,40,15.20
2015,08,30,17,41,14.40
2015,08,30,17,42,19.40
2015,08,30,17,43,21.10
2015,08,30,17,44,14.20
2015,08,30,17,45,13.40
2015,08,30,17,46,11.60
2015,08,30,17,47,15.30
2015,08,30,17,48,18.30
2015,08,30,17,49,16.30